Location: Dampvalley
(47.9094°N, 6.1967°E)
Time: 02:12:05
(UTC+00:00)

N. Korean satellite - Pass Details

Date: 10 December 2022
Orbit: 408 x 444 km, 97.3° (Epoch: 28 January)

Event Time Altitude Azimuth Distance (km) Brightness Sun altitude
Rises 16:15:33 0° 177° (S) 2,472 10.5 -5.6°
Reaches altitude 10° 16:17:36 10° 183° (S) 1,609 9.7 -5.9°
Maximum altitude 16:20:59 51° 260° (W) 594 7.5 -6.4°
Drops below altitude 10° 16:24:26 10° 338° (NNW) 1,636 9.2 -6.9°
Sets 16:26:32 0° 343° (NNW) 2,519 10.1 -7.2°
